Find Starlink 30572

NORAD ID: 58114 Int'l Des: 2023-161 Owner: SPXS Country: US Constellation: starlink operational
LEOCIRCULAR

現在のビュー

3D地球を読み込み中...

About Starlink 30572

Starlink 30572 (NORAD 58114) is a starlink constellation satellite (v2 mini) launched Oct 21, 2023 by SPXS of US. It operates in LEO, CIRCULAR orbit with a mass of 730.00 kg.

Starlink 30572について

説明を読み込み中...

次回通過

Passes for default location (London). Set your location on the main map for personalized predictions.

高度履歴

Loading altitude history...

軌道要素

1 58114U 23161T 26173.34363701 .00006226 00000-0 22187-3 0 9997
2 58114 53.1600 39.4947 0001033 68.9631 291.1480 15.30244250150447
Epoch: Jun 22, 2026 • Age: 26 hours

現在のステータス

高度 490.9 km
速度 7.62 km/s
衛星直下点 -44.88°S, 164.94°W
打ち上げ日 Oct 21, 2023
運用期間 2.6 years
タイプ internet

技術仕様

分類 Payload
質量 730.00 kg
乾燥質量 700.00 kg
総質量 730.00 kg
長さ 0.30 m
直径 4.10 m
スパン 29.00 m
形状 Box + pan
製造者 SPXS
バスタイプ Starlink V2M
フェーズステータス In Orbit
所有者/国 SPXS/US

Most Searched